Buger, Spain

8:12 AM CET on November 19, 2017 (GMT +0100)
Buger

Weather History for 08306 - March, 2013

Change the Weather History Date:

Tuesday, March 19, 2013

  Actual Average Record
Temperature  
Mean Temperature 52 °F -  
Max Temperature 63 °F 65 °F - ()
Min Temperature 42 °F 44 °F - ()
Degree Days  
Heating Degree Days 12    
Growing Degree Days 2 (Base 50)    
Moisture  
Dew Point 49 °F    
Average Humidity 84    
Maximum Humidity 100    
Minimum Humidity 56    
Precipitation  
Precipitation 0.00 in 0.05 in - ()
Sea Level Pressure  
Sea Level Pressure 29.69 in    
Wind  
Wind Speed 3 mph ()    
Max Wind Speed 14 mph    
Max Gust Speed -    
Visibility 6.2 miles    
Events Fog    
T = Trace of Precipitation, MM = Missing Value Source: Averaged Metar Reports

Daily Weather History Graph

Daily Weather History Graph

Search for Another Location

Airport or City:

Trip Planner

Search our weather history database for the weather conditions in past years. The results will help you decide how hot, cold, wet, or windy it might be!

Date:

Astronomy

Mar. 19, 2013 Rise Set
Actual Time 6:54 AM CET 7:00 PM CET
Civil Twilight 6:27 AM CET 7:26 PM CET
Nautical Twilight 5:55 AM CET 7:58 PM CET
Astronomical Twilight 5:24 AM CET 8:30 PM CET
Moon 11:32 AM CET 1:33 AM CET
Length of Visible Light 12h 59m
Length of Day
12h 06m
Waxing Crescent, 48% of the Moon is Illuminated
Mar 19
Waxing Crescent
Mar 19
First Quarter
Mar 27
Full
Apr 3
Last Quarter
Apr 10
New

Hourly Weather History & Observations

Time (CET) Temp. Dew Point Humidity Pressure Visibility Wind Dir Wind Speed Gust Speed Precip Events Conditions
12:00 AM 46.4 °F 42.8 °F 87% 29.80 in - Calm Calm - N/A   Clear
12:30 AM 44.6 °F 41.0 °F 87% 29.80 in - Calm Calm - N/A   Clear
1:00 AM 42 °F 38 °F 82% 29.79 in 12 mi Calm Calm - -   Partly Cloudy
1:00 AM 44.6 °F 41.0 °F 87% 29.77 in 6.2 mi Calm Calm - N/A   Scattered Clouds
1:30 AM 46.4 °F 42.8 °F 87% 29.77 in 6.2 mi Calm Calm - N/A   Mostly Cloudy
2:00 AM 46.4 °F 42.8 °F 87% 29.77 in 6.2 mi Variable 1.2 mph - N/A   Scattered Clouds
2:30 AM 44.6 °F 42.8 °F 93% 29.77 in 6.2 mi Variable 1.2 mph - N/A   Scattered Clouds
3:00 AM 44.6 °F 42.8 °F 93% 29.74 in 6.2 mi NNW 2.3 mph - N/A   Scattered Clouds
3:30 AM 46.4 °F 44.6 °F 93% 29.74 in 6.2 mi Calm Calm - N/A   Mostly Cloudy
4:00 AM 48.2 °F 46.4 °F 93% 29.74 in 6.2 mi Calm Calm - N/A   Mostly Cloudy
4:30 AM 46.4 °F 44.6 °F 93% 29.74 in 5.0 mi Variable 2.3 mph - N/A   Mostly Cloudy
5:00 AM 48.2 °F 46.4 °F 93% 29.74 in 5.0 mi Variable 2.3 mph - N/A   Scattered Clouds
5:30 AM 46.4 °F 44.6 °F 93% 29.74 in 5.0 mi NE 2.3 mph - N/A   Scattered Clouds
6:00 AM 46.4 °F 44.6 °F 93% 29.74 in 5.0 mi NNE 2.3 mph - N/A   Scattered Clouds
6:30 AM 46.4 °F 46.4 °F 100% 29.74 in 5.0 mi NNW 2.3 mph - N/A   Scattered Clouds
7:00 AM 47 °F 45 °F 90% 29.76 in 5 mi NNW 3.5 mph - -   Mist
7:00 AM 48.2 °F 46.4 °F 93% 29.74 in 5.0 mi Variable 2.3 mph - N/A   Scattered Clouds
7:30 AM 50.0 °F 48.2 °F 94% 29.74 in 3.1 mi Variable 1.2 mph - N/A   Scattered Clouds
8:00 AM 48.2 °F 48.2 °F 100% 29.74 in 5.0 mi Calm Calm - N/A Fog Fog
8:30 AM 50.0 °F 48.2 °F 94% 29.74 in 5.0 mi East 3.5 mph - N/A Fog Mostly Cloudy
8:34 AM 51.8 °F 50.0 °F 94% 29.74 in 5.0 mi East 3.5 mph - N/A Fog Fog
9:00 AM 53.6 °F 51.8 °F 94% 29.74 in 5.6 mi ESE 4.6 mph - N/A Fog Partly Cloudy
9:30 AM 55.4 °F 51.8 °F 88% 29.74 in 6.2 mi Variable 2.3 mph - N/A Fog Partly Cloudy
10:00 AM 57.2 °F 53.6 °F 88% 29.74 in 6.2 mi NNE 3.5 mph - N/A   Partly Cloudy
10:30 AM 60.8 °F 53.6 °F 77% 29.74 in 6.2 mi Variable 1.2 mph - N/A   Partly Cloudy
11:00 AM 60.8 °F 53.6 °F 77% 29.74 in 6.2 mi Calm Calm - N/A   Partly Cloudy
11:30 AM 62.6 °F 53.6 °F 72% 29.71 in 6.2 mi SW 6.9 mph - N/A   Partly Cloudy
12:00 PM 60.8 °F 53.6 °F 77% 29.71 in 6.2 mi West 8.1 mph - N/A   Scattered Clouds
12:30 PM 62.6 °F 53.6 °F 72% 29.71 in 6.2 mi West 8.1 mph - N/A   Partly Cloudy
1:00 PM 62 °F 50 °F 56% 29.70 in 12 mi WSW 10.4 mph - -   Partly Cloudy
1:00 PM 62.6 °F 53.6 °F 72% 29.68 in 6.2 mi West 10.4 mph - N/A   Scattered Clouds
1:30 PM 62.6 °F 51.8 °F 68% 29.68 in 6.2 mi WSW 4.6 mph - N/A   Scattered Clouds
2:00 PM 62.6 °F 53.6 °F 72% 29.65 in 6.2 mi SW 13.8 mph - N/A   Partly Cloudy
2:30 PM 62.6 °F 53.6 °F 72% 29.65 in 6.2 mi SW 12.7 mph - N/A   Partly Cloudy
3:00 PM 62.6 °F 51.8 °F 68% 29.65 in 6.2 mi SW 12.7 mph - N/A   Partly Cloudy
3:30 PM 60.8 °F 51.8 °F 72% 29.62 in 6.2 mi SW 11.5 mph - N/A   Partly Cloudy
4:00 PM 62.6 °F 50.0 °F 63% 29.62 in 6.2 mi SW 13.8 mph - N/A   Partly Cloudy
4:30 PM 60.8 °F 51.8 °F 72% 29.62 in 6.2 mi SW 12.7 mph - N/A   Partly Cloudy
5:00 PM 60.8 °F 51.8 °F 72% 29.62 in 6.2 mi SW 11.5 mph - N/A   Partly Cloudy
5:30 PM 59.0 °F 53.6 °F 82% 29.62 in 6.2 mi SW 11.5 mph - N/A   Partly Cloudy
6:00 PM 59.0 °F 53.6 °F 82% 29.62 in 6.2 mi SW 8.1 mph - N/A   Partly Cloudy
6:30 PM 57.2 °F 53.6 °F 88% 29.62 in 6.2 mi SW 6.9 mph - N/A   Partly Cloudy
7:00 PM 56 °F 50 °F 73% 29.62 in 11 mi SSW 8.1 mph - -   Scattered Clouds
7:00 PM 57.2 °F 53.6 °F 88% 29.59 in 6.2 mi SW 4.6 mph - N/A   Partly Cloudy
7:30 PM 57.2 °F 51.8 °F 82% 29.59 in 6.2 mi SW 1.2 mph - N/A   Partly Cloudy
8:00 PM 57.2 °F 51.8 °F 82% 29.62 in 6.2 mi SW 2.3 mph - N/A   Partly Cloudy
8:30 PM 53.6 °F 50.0 °F 88% 29.62 in 6.2 mi Calm Calm - N/A   Partly Cloudy
9:00 PM 53.6 °F 51.8 °F 94% 29.62 in 6.2 mi ESE 1.2 mph - N/A   Partly Cloudy
9:30 PM 51.8 °F 50.0 °F 94% 29.62 in 6.2 mi Variable 1.2 mph - N/A   Partly Cloudy
10:00 PM 51.8 °F 50.0 °F 94% 29.62 in 6.2 mi NE 2.3 mph - N/A   Scattered Clouds
10:30 PM 53.6 °F 51.8 °F 94% 29.62 in 6.2 mi Variable 1.2 mph - N/A   Scattered Clouds
11:00 PM 50.0 °F 48.2 °F 94% 29.59 in 6.2 mi Calm Calm - N/A   Scattered Clouds